Location: Consuma
(43.7833°N, 11.5833°E)
Time: 09:06:21
(UTC+00:00)

Cosmos 1743 Rocket - Pass Details

Date: 17 February 2020
Orbit: 604 x 633 km, 82.6° (Epoch: 27 March)

Event Time Altitude Azimuth Distance (km) Brightness Sun altitude
Rises 05:08:00 0° 340° (NNW) 2,871 6.7 -11.9°
Reaches altitude 10° 05:10:26 10° 329° (NNW) 1,961 5.8 -11.5°
Maximum altitude 05:14:08 28° 271° (W) 1,145 4.4 -10.8°
Drops below altitude 10° 05:17:49 10° 212° (SSW) 1,949 5.9 -10.2°
Sets 05:20:14 0° 200° (SSW) 2,849 6.8 -9.7°
